Regional Weather Roundup
Issued by NWS

Home | Current Version | Previous Version | Graphics & Text | Print | Product List | Glossary On
Versions: 1 2 3 4 5 6 7 8 9 10 11 12 13 14 15 16 17 18 19 20 21 22 23 24 25 26 27 28 29 30 31 32 33 34 35 36 37 38 39 40 41 42 43 44 45 46 47 48 49 50
000
ASUS45 KPSR 262010
RWRAZ

ARIZONA HOURLY REGIONAL WEATHER ROUNDUP
NATIONAL WEATHER SERVICE PHOENIX AZ
100 PM MST TUE MAY 26 2015

NOTE: FAIR INDICATES FEW OR NO CLOUDS BELOW 12,000 FEET WITH NO
SIGNIFICANT WEATHER AND/OR OBSTRUCTIONS TO VISIBILITY.

AZZ001>003-036-262100-
NORTHWEST ARIZONA

CITY           SKY/WX    TMP DP  RH WIND       PRES   REMARKS
BULLHEAD CITY  SUNNY     91  23   8 S16G24    29.86F
KINGMAN        SUNNY     84  29  13 SW23G32   30.00F
$$

AZZ004>008-015-016-018-262100-
NORTH CENTRAL ARIZONA

CITY           SKY/WX    TMP DP  RH WIND       PRES   REMARKS
GRAND CANYON   MOSUNNY   68  32  26 SW13G18   30.17F
WILLIAMS       MOSUNNY   66  32  28 W16       30.25F
PRESCOTT       MOSUNNY   76  29  17 W16       30.09F
FLAGSTAFF      MOSUNNY   65  32  29 SW12G23   30.20F
PAYSON         MOSUNNY   75  37  25 SW10G17   30.12F
PAGE           MOSUNNY   77  41  27 VRB7      30.02F
$$

AZZ009>014-017-262100-
NORTHEAST ARIZONA

CITY           SKY/WX    TMP DP  RH WIND       PRES   REMARKS
WINSLOW        PTSUNNY   76  36  23 VRB3      30.06F
SAINT JOHNS    PTSUNNY   73  34  23 E7        30.11F
WINDOW ROCK    PTSUNNY   68  33  27 SW12      30.17F
SHOW LOW       MOSUNNY   68  27  21 W10G16    30.17S
$$

AZZ023-262100-
GREATER PHOENIX AREA

CITY           SKY/WX    TMP DP  RH WIND       PRES   REMARKS
PHOENIX        MOSUNNY   91  39  16 S8        29.90F
BUCKEYE        SUNNY     88  37  16 NE7       29.91F
GLENDALE       MOSUNNY   90  39  17 S5        29.92F
LUKE AFB       MOSUNNY   89  41  18 VRB6      29.89F
DEER VALLEY    SUNNY     87  37  17 S8        29.92F
SCOTTSDALE     SUNNY     88  37  16 S8        29.93F
MESA-FALCON    MOSUNNY   86  37  17 W7        29.92
MESA-GATEWAY   MOSUNNY   88  41  19 W6        29.94F
CHANDLER       MOSUNNY   88  39  18 SE7       29.92F
$$

AZZ027-028-262100-
SOUTHWEST MARICOPA COUNTY AND PINAL COUNTY

CITY           SKY/WX    TMP DP  RH WIND       PRES   REMARKS
CASA GRANDE    SUNNY     88  39  18 CALM      29.92S
GILA BEND      MOSUNNY   86  39  19 NW8       29.90S
$$

AZZ503-504-507>509-262100-
SOUTHEAST ARIZONA

CITY           SKY/WX    TMP DP  RH WIND       PRES   REMARKS
TUCSON         SUNNY     89  29  11 SW12      29.98F
DAVIS-MONTHAN  MOSUNNY   87  33  14 SW8       29.96F
RYAN FIELD       N/A     91  32  12 W7G16     29.96
NOGALES        SUNNY     87  18   8 SW16G23   30.04F
SIERRA VISTA   MOSUNNY   82  19   9 S13G24    30.08F
DOUGLAS        SUNNY     83  20   9 S8G21     30.05F
SAFFORD        SUNNY     84  33  16 VRB3      29.97F
$$

AZZ020-021-025-026-031-262100-
SOUTHWEST ARIZONA

CITY           SKY/WX    TMP DP  RH WIND       PRES   REMARKS
YUMA           MOSUNNY   90  44  20 VRB6      29.87F
$$

CAZ031-033-041-043-047-048-061-262100-
SOUTHERN CALIFORNIA

CITY           SKY/WX    TMP DP  RH WIND       PRES   REMARKS
DOWNTOWN L.A.  CLOUDY    67  56  67 CALM      29.99
L.A. AIRPORT   PTSUNNY   64  55  72 W10       30.01F
SAN DIEGO      CLOUDY    65  55  70 W8        30.02F
BURBANK        PTSUNNY   67  53  61 W3        29.98F
ONTARIO        CLOUDY    71  53  52 VRB5      29.98F
RIVERSIDE      PTSUNNY   71  54  54 VRB3      29.98F
PALM SPRINGS   PTSUNNY   87  43  21 E7        29.89F
EL CENTRO NAS  MOSUNNY   88  48  25 E6        29.87F
IMPERIAL       SUNNY     89  51  27 VRB3      29.85F
BLYTHE         MOSUNNY   89  37  16 S7        29.87F
NEEDLES        SUNNY     93   8   4 SW13G20   29.87F
$$

NVZ020-UTZ003-262100-
SOUTHERN NEVADA-UTAH

CITY           SKY/WX    TMP DP  RH WIND       PRES   REMARKS
LAS VEGAS      MOSUNNY   88  36  15 E6        29.87F
SALT LAKE CITY PTSUNNY   61  50  67 S12       30.03F
$$

NMZ009-TXZ055-262100-
NEW MEXICO-WEST TEXAS

CITY           SKY/WX    TMP DP  RH WIND       PRES   REMARKS
ALBUQUERQUE    PTSUNNY   71  42  35 VRB7      30.12F
EL PASO        MOSUNNY   83  32  16 W6        30.03F
$$


........................KEY........................
SKY/WX - SKY CONDITION/WEATHER
TMP    - TEMPERATURE IN FAHRENHEIT
DP     - DEW POINT IN FAHRENHEIT
RH     - RELATIVE HUMIDITY IN PERCENT
WIND   - DIRECTION AND SPEED IN MILES PER HOUR (MPH)
VRB    - VARIABLE WIND DIRECTION
PRES   - MEAN SEA LEVEL PRESSURE IN INCHES OF MERCURY
         F - FALLING PRESSURE   R - RISING PRESSURE
         S - STEADY PRESSURE
VSB    - VISIBILITY IN MILES
HX     - HEAT INDEX IN FAHRENHEIT
WCI    - WIND CHILL INDEX IN FAHRENHEIT
TC     - TEMPERATURE IN CELSIUS WHICH IS ALSO KNOWN AS
         TEMPERATURE IN CENTIGRADE
AFB    - AIR FORCE BASE
         LUKE AFB IS LUKE AIR FORCE BASE
         DAVIS-MONTHAN IS DAVIS-MONTHAN AIR FORCE BASE
NAS    - NAVAL AIR STATION
         EL CENTRO NAS IS EL CENTRO NAVAL AIR STATION
N/A    - NOT AVAILABLE



USA.gov is the U.S. government's official web portal to all federal, state and local government web resources and services.